www.pogodaiklimat.ru

Погода и климат >> Архив погоды >> Россия >> Ставропольский край >> Арзгир


ПОГОДА в Арзгире

  • Прогноз погоды в Арзгире
  • Монитор погоды в Арзгире

АРХИВ ПОГОДЫ в Арзгире

Время (UTC), дата Ветер
(напр.,м/с)
 
Видим.   Явления Облачность Т
(С)
Тd
(С)
f
(%)
Тe
(С)
Тes
(С)
Комфортность P
(гПа)
Po
(гПа)
Тmin
(С)
Tmax
(С)
R
(мм)
R24
(мм)
S
(см)
15 15.09 СЗ 3 20 км 3/0 2000 м
[Ac trans]
+25.6 +3.4 24 +25 +25 комфорт 1016.6 1004.8 +28.7
18 15.09 СЗ 2 20 км ясно +20.4 +6.4 40 +22 +22 комфорт 1019.1 1007.0
21 15.09 С 2 20 км ясно +15.6 +6.4 54 +16 +16 1020.3 1008.0
00 16.09 штиль 0 20 км ясно +10.0 +5.0 71 +9 +9 1020.8 1008.2
03 16.09 штиль 0 20 км ясно +9.4 +4.8 73 +9 +9 1020.3 1007.7 +7.7
06 16.09 В 4 20 км ясно +19.5 +3.1 34 +20 +24 1019.2 1007.1
09 16.09 В 3 20 км ясно +24.1 +2.4 24 +23 +33 комфорт 1016.9 1005.0
12 16.09 Ю 2 20 км ясно +27.3 +2.8 21 +26 +32 жарко 1013.5 1001.8
15 16.09 ЮВ 3 20 км ясно +24.6 +4.1 26 +24 +24 комфорт 1012.6 1000.7 +27.6
18 16.09 ЮВ 4 20 км ясно +21.4 +4.2 32 +22 +22 комфорт 1012.6 1000.6
21 16.09 Ю 6 20 км ясно +19.3 +7.4 46 +20 +20 1012.1 1000.0
00 17.09 Ю 5 20 км 4/0 2000 м
[Ac trans]
+17.3 +8.7 57 +17 +17 1011.7 999.6
03 17.09 ЮЗ 3 20 км 8/8 600 м
[Sc]
+15.9 +5.4 50 +16 +16 1012.5 1000.3 +15.1
06 17.09 ЮЗ 2 20 км 10/10 600 м
[Cb cap]
+20.0 +3.4 33 +21 +21 комфорт 1012.6 1000.5
09 17.09 ЮЗ 3 20 км 10/10 300 м
[Cb cap]
+19.2 +8.9 51 +20 +20 1011.3 999.3
12 17.09 ЮЗ 2 10 км ливневой дождь 10/10 300 м
[Cb cap]
+18.4 +11.4 64 +19 +19 1011.0 998.9
15 17.09 Ю 5 20 км 8/8 300 м
[Cb cap]
+18.7 +13.1 70 +19 +19 1010.2 998.2 +22.0 0.3
18 17.09 Ю 5 20 км 8/8 300 м
[Cb cap]
+16.4 +12.5 78 +15 +15 1010.7 998.6
21 17.09 ЮЗ 4 20 км 8/8 300 м
[Cb cap]
+16.0 +12.3 79 +15 +15 1010.9 998.7
00 18.09 ЮЗ 2 20 км 6/6 600 м
[Sc]
+16.3 +9.1 62 +16 +16 1011.8 999.7
03 18.09 Ю 4 20 км 6/6 600 м
[Sc]
+14.5 +9.9 74 +13 +13 1012.8 1000.6 +14.5
06 18.09 ЮЗ 3 20 км 8/8 600 м
[Sc]
+21.7 +9.3 45 +23 +24 комфорт 1013.3 1001.3
09 18.09 З 5-11
{11}
20 км 8/8 300 м
[Cb cap]
+25.7 +8.2 33 +26 +27 жарко 1012.0 1000.2
12 18.09 ЮЗ 4
{12}
20 км 8/8 300 м
[Cb cap]
+28.4 +6.9 26 +28 +28 жарко 1010.4 998.8
15 18.09 Ю 4
{12}
20 км 4/0 2000 м
[Ac cast]
+26.9 +5.9 26 +26 +26 жарко 1009.3 997.6 +29.2
18 18.09 Ю 5 20 км 6/0 2000 м
[Ac cast]
+22.7 +4.9 31 +23 +23 комфорт 1010.4 998.5
21 18.09 СЗ 3
{13}
20 км 8/0 2000 м
[Ac cast]
+18.4 +10.8 61 +19 +19 1013.4 1001.4
00 19.09 З 2 20 км 8/4 300 м
[Cb cap Ac cast]
+16.0 +9.0 63 +16 +16 1015.2 1003.0
03 19.09 З 3 20 км 4/4 600 м
[Sc diur, vesp]
+13.6 +7.1 65 +13 +13 1017.6 1005.2 +12.1
06 19.09 З 4 20 км 9/9 300 м
[Cb cap]
+16.1 +0.6 35 +16 +16 1019.7 1007.4
09 19.09 З 2 20 км 10/10 300 м
[Cb cap]
+17.2 -0.6 30 +18 +18 1020.3 1008.0
12 19.09 З 2 20 км 9/9 300 м
[Cb cap]
+18.7 -0.4 28 +19 +20 1019.9 1007.7
15 19.09 ЮЗ 1 20 км 8/8 300 м
[Cb cap Ac trans]
+18.1 +0.8 31 +19 +19 1020.0 1007.8 +20.1
18 19.09 З 1 20 км 10/10 300 м
[Cb cap]
+15.8 +1.5 38 +17 +17 1020.5 1008.2
21 19.09 В 1 20 км 10/10 300 м
[Cb cap]
+15.2 +1.5 39 +16 +16 1019.4 1007.1
00 20.09 СВ 1 20 км 10/10 300 м
[Cb cap]
+14.9 +2.8 44 +16 +16 1020.0 1007.7
03 20.09 СВ 2 20 км 10/10 300 м
[St]
+14.7 +2.5 44 +15 +15 1019.4 1007.1 +14.3
06 20.09 СВ 4 20 км 10/10 300 м
[Cb cap]
+15.9 +2.7 41 +15 +15 1019.0 1006.7
09 20.09 СВ 5
{11}
20 км 8/0 2000 м
[Ac As]
+19.7 +1.9 31 +20 +22 1016.5 1004.4
12 20.09 СВ 6-10
{11}
20 км 8/0 2000 м
[Ac trans Ci fib]
+21.6 +1.0 25 +21 +23 комфорт 1013.9 1001.9
15 20.09 СВ 5
{10}
20 км 9/9 600 м
[Cb cap]
+19.7 +0.2 27 +20 +20 1012.2 1000.2 +22.0
18 20.09 СВ 5
{12}
20 км 6/6 600 м
[Sc diur, vesp]
+16.8 +2.7 39 +16 +16 1012.6 1000.4
21 20.09 С 3
{11}
20 км 10/10 300 м
[Cb cap]
+15.4 +2.2 41 +15 +15 1011.4 999.2
00 21.09 СЗ 6-11
{13}
20 км 10/10 300 м
[Cb cap]
+9.7 +6.8 82 +6 +6 1014.1 1001.6
03 21.09 СЗ 2
{11}
4000 м слаб. ливневой дождь 10/10 300 м
[Cb cap]
+8.6 +7.5 93 +7 +7 1014.5 1002.0 +8.5 0.8
06 21.09 З 2 4000 м дымка {ливн. осадки} 10/10 300 м
[Cb cap]
+10.0 +8.6 91 +8 +8 1015.6 1003.1
09 21.09 З 4 20 км 10/10 300 м
[Cb cap]
+10.7 +6.4 75 +8 +8 1016.6 1004.2
12 21.09 СЗ 3 20 км 9/9 300 м
[Cb cap]
+14.8 +5.2 53 +14 +15 1016.2 1004.0
15 21.09 З 2 20 км 6/0 2000 м
[Ac trans]
+13.3 +4.4 55 +13 +13 1016.7 1004.3 +15.1 0.3
18 21.09 Ю 3
{12}
20 км 6/6 600 м
[Sc]
+7.5 +4.6 82 +5 +5 1018.5 1005.9
21 21.09 З 3 20 км 4/0 2000 м
[Ac trans]
+8.0 +4.5 79 +5 +5 1019.0 1006.3
00 22.09 ЮЗ 3 20 км 4/0 2000 м
[Ac trans]
+6.1 +3.9 86 +3 +3 1019.7 1007.0
03 22.09 ЮЗ 4 20 км 4/0 2000 м
[Ac trans]
+5.9 +3.4 84 +2 +2 1021.1 1008.4 +5.8
06 22.09 З 4 20 км ясно +12.3 +3.8 56 +11 +14 1021.4 1008.9
09 22.09 З 5-10
{14}
20 км 4/0 2000 м
[Ac trans]
+16.2 +0.9 35 +15 +19 1019.4 1007.1

 

Местоположение метеостанции Арзгир (Ставропольский край, Россия): широта 45.40 долгота 44.20 высота над уровнем моря 103 м.

В архиве по умолчанию представлена погода в Арзгире за последнюю неделю. Архивные данные за месяц целиком и за предыдущие месяцы, начиная с января 2011 года, Вы можете получить, выбрав интересующий диапазон дат из раскрывающегося списка и нажав кнопку "Ввод!".


*Определитесь, кто Вы:
робот инопланетянин человек

Внимание! Время в таблицах - всемирное. Для получения местного времени необходимо прибавить поправку, которая равна 3 ч.

Смотрите также архив погоды в соседних городах и на ближайших метеорологических станциях:

Погода в Ики-Буруле (Калмыкия, Россия) (56 км)
Погода в Благодарном (Ставропольский край, Россия) (68 км)
Погода в Буденновске (Ставропольский край, Россия) (69 км)
Погода в Дивном (Ставропольский край, Россия) (88 км)
Погода в Светлограде (Ставропольский край, Россия) (106 км)
Погода в Элисте (Калмыкия, Россия) (108 км)
Погода в Зеленокумске (Ставропольский край, Россия) (111 км)
Погода в Александровском (Ставропольский край, Россия) (121 км)
Погода в Яшкуле (Калмыкия, Россия) (124 км)
Погода в Ремонтном (Ростовская область, Россия) (136 км)

Пояснения к столбцам:

Ветер - указаны скорость ветра в м/с - средняя за 10 мин, порывы в срок и между сроками (в фигурных скобках) и направление, откуда дует ветер: С - северный, СВ - северо-восточный, В - восточный, ЮВ - юго-восточный, Ю - южный, ЮЗ - юго-западный, З - западный, СЗ - северо-западный.
Видимость - горизонтальная дальность видимости в метрах или километрах. При видимости от 1 до 10 км при отсутствии осадков обычно наблюдается дымка, при ухудшении видимости до 1 км и менее - туман. В сухую погоду видимость может ухудшаться дымом, пылью или мглою.
Явления - указаны атмосферные явления, наблюдавшиеся в срок или в последний час перед сроком; фигурными скобками обозначены явления, наблюдавшиеся между сроками (за 1-3 часа до срока); квадратными скобками обозначены град или гололедные отложения с указанием их диаметра в мм.
Облачность - указаны через наклонную черту общая и нижняя облачность в баллах и высота нижней границы облаков в метрах; квадратными скобками обозначены формы облаков: Ci - перистые, Cs - перисто-слоистые, Cc - перисто-кучевые, Ac - высококучевые, As - высокослоистые, Sc - слоисто-кучевые, Ns - слоисто-дождевые, Cu - кучевые, Cb - кучево-дождевые. Подробнее классификацию облаков см. в Атласе облаков (PDF).
T - Температура воздуха - температура, измеренная на высоте 2 м над землей.
Td - Температура точки росы - температура, при понижении до которой содержащийся в воздухе водяной пар достигнет насыщения.
f - Относительная влажность воздуха - влажноcть воздуха, измеренная на высоте 2 м над землей.
Te - Эффективная температура - температура, которую ощущает одетый по сезону человек в тени. Характеристика душности погоды. При расчете учитывается влияние влажности воздуха и скорости ветра на теплоощущения человека.
Tes - Эффективная температура на солнце - температура, которую ощущает человек, с поправкой на солнечный нагрев. Характеристика знойности погоды. Зависит от высоты солнца над горизонтом, облачности и скорости ветра. Ночью, в пасмурную погоду, а также при ветре 12 м/с и более поправка равна нулю.
P - Атмосферное давление - приведенное к уровню моря атмосферное давление.
Po - Атмосферное давление - измеренное на уровне метеостанции атмосферное давление.
Tmin - Минимальная температура - минимум температуры воздуха на высоте 2 м над землей.
Tmax - Максимальная температура - максимум температуры воздуха на высоте 2 м над землей.
R - Количество осадков - Количество выпавших осадков за период времени, мм. При наведении курсора мыши на число - период времени, за который выпало указанное количество осадков.
R24 - Количество осадков - Количество выпавших осадков за 24 часа, мм.
S - Снежный покров - Высота снежного покрова, см. При наведении курсора мыши на число - состояние снежного покрова и степень покрытия местности в баллах.